[[{"header":{"parameterUnit":"m.s-1","parameterCategory":1,"la1":30.2991,"la2":30.254,"lo1":-89.0895,"lo2":-89.0444,"dy":0.0017,"dx":0.0017,"nx":28,"ny":28,"refTime":"2025-03-21T03:00:00:Z","depth":0,"parameterNumber":2,"parameterNumberName":"U-component_of_WINDS"},"data":[0,0,0,0,0,0,0,0,0,0,0,0,0,0,0,0,0,0,0,0,0,0,0,0,0,0,0,0,0,0,0,0,0,0,0,0,0,0,0,0,0,0,0,0,0,0,0,0,0,0,0,0,0,0,0,0,0,0,1.1812,1.1813,0,1.1942,1.1944,1.1945,1.197,1.1969,1.1968,1.1967,1.2104,1.2109,1.2114,0,0,0,0,0,0,0,0,0,0,0,0,0,1.1588,1.1592,1.1812,1.1814,1.1815,1.1942,1.1944,1.1946,1.197,1.1969,1.1967,1.1966,1.2103,1.2108,1.2114,0,0,0,0,0,0,0,0,0,0,0,0,0,1.1698,1.1593,1.1812,1.1842,1.1846,1.1942,1.1944,1.1946,1.197,1.1969,1.1967,1.1965,1.2101,1.2108,1.2115,1.219,0,0,1.2136,1.2139,0,0,0,0,0,0,0,0,1.1692,1.1707,1.1836,1.184,1.1845,1.1938,1.1915,1.2028,1.1971,1.1923,1.1967,1.1965,1.2051,1.2062,1.209,1.2196,1.2202,1.2137,1.2141,1.2144,1.2146,0,0,0,0,0,0,0,1.1684,1.1701,1.1864,1.1838,1.1844,1.1851,1.1865,1.1937,1.1995,1.1927,1.1929,1.1944,1.2053,1.2083,1.2093,1.2204,1.2137,1.2143,1.2147,1.215,1.2379,1.2381,0,0,0,0,0,0,1.1671,1.1695,1.186,1.1868,1.1763,1.1856,1.1872,1.191,1.1994,1.2005,1.1945,1.1945,1.2072,1.2085,1.2098,1.2191,1.2144,1.215,1.2155,1.2377,1.2379,1.2381,0,0,0,0,0,0,1.1666,1.1685,1.1854,1.1782,1.1804,1.1862,1.1904,1.1913,1.1943,1.2007,1.2018,1.1965,1.2071,1.2088,1.2166,1.2196,1.2154,1.216,1.2375,1.2378,1.238,1.2378,0,0,0,0,0,0,1.1659,1.1683,1.1711,1.1782,1.1807,1.1919,1.1906,1.1917,1.1955,1.1955,1.2029,1.204,1.2071,1.2156,1.2173,1.2205,1.2165,1.2372,1.2376,1.2379,1.2376,1.2381,1.2385,0,0,0,0,0,1.1651,1.1707,1.1713,1.1733,1.1844,1.1921,1.1936,1.1969,1.1957,1.1987,1.2028,1.2037,1.219,1.2164,1.2184,1.2218,1.2371,1.2375,1.2379,1.2374,1.238,1.2385,0,0,0,0,0,0,1.164,1.1717,1.1724,1.1804,1.1855,1.1925,1.1963,1.1975,1.2032,1.203,1.2071,1.2087,1.2163,1.2199,1.2168,1.2295,1.228,1.2288,1.2269,1.2275,1.2279,1.2269,1.2171,0,0,0,0,0,1.1646,1.1701,1.1766,1.183,1.1855,1.1905,1.194,1.1961,1.2017,1.2039,1.2086,1.2141,1.2201,1.224,1.2299,1.2381,1.2398,1.2415,1.2419,1.2422,1.2429,1.2475,1.2483,1.2395,1.2395,1.2395,0,0,1.1661,1.171,1.1742,1.1829,1.1872,1.1928,1.1923,1.1984,1.2027,1.2049,1.2125,1.2161,1.2225,1.2305,1.2343,1.2337,1.2457,1.2428,1.243,1.2435,1.248,1.2488,1.2496,1.2398,1.2398,1.2397,0,0,1.1716,1.1759,1.1816,1.1859,1.1922,1.1955,1.1969,1.2036,1.2061,1.2137,1.2155,1.2207,1.2311,1.2355,1.2391,1.2463,1.2474,1.2481,1.2504,1.2549,1.2555,1.2562,1.2587,1.2596,1.2488,1.2488,1.2488,0,1.1727,1.1812,1.1845,1.1905,1.1943,1.1964,1.2023,1.2063,1.2144,1.217,1.2162,1.2291,1.2336,1.2426,1.2444,1.2472,1.249,1.2473,1.2551,1.2558,1.2565,1.2589,1.2599,1.2488,1.2488,1.2488,1.2488,0,1.1822,1.1881,1.192,1.1995,1.2038,1.2097,1.214,1.2179,1.2197,1.223,1.2308,1.2362,1.2432,1.2456,1.2474,1.2549,1.2543,1.2543,1.2529,1.2573,1.2597,1.2607,1.2489,1.2489,1.2489,1.2489,0,0,1.1874,1.1966,1.198,1.2014,1.2086,1.2133,1.2193,1.226,1.2293,1.2348,1.24,1.2486,1.2486,1.2527,1.2551,1.259,1.2643,1.2585,1.2587,1.2593,1.2728,1.2728,1.2738,1.265,1.2652,1.2654,1.2723,0,1.1938,1.2045,1.2076,1.2167,1.2222,1.2242,1.2295,1.2345,1.2378,1.243,1.2467,1.2528,1.2523,1.2548,1.2587,1.2628,1.267,1.2623,1.27,1.2702,1.2683,1.2751,1.2751,1.2814,1.2732,1.2734,1.2735,0,1.2027,1.2082,1.2177,1.2241,1.2265,1.2312,1.2376,1.2425,1.2483,1.2504,1.2549,1.2569,1.2634,1.2616,1.2706,1.2673,1.2706,1.2731,1.2735,1.2743,1.2721,1.2761,1.2835,1.2844,1.275,1.2749,1.2748,0,1.2056,1.2153,1.2223,1.2251,1.2328,1.236,1.2394,1.2449,1.2488,1.2544,1.2569,1.2633,1.2668,1.2717,1.2754,1.2737,1.2841,1.2826,1.2861,1.286,1.2882,1.288,1.2962,1.2904,1.2903,1.2903,1.2903,0,1.2124,1.2181,1.2236,1.2279,1.2344,1.238,1.2444,1.2479,1.2528,1.2579,1.2601,1.2649,1.2695,1.2748,1.2778,1.2848,1.2864,1.2883,1.2891,1.2881,1.2879,1.2904,1.29,1.2906,1.2905,1.2905,1.2904,0,1.2167,1.2206,1.2283,1.2348,1.2366,1.2411,1.2468,1.2511,1.2544,1.2608,1.2625,1.2677,1.2742,1.2783,1.2866,1.2886,1.2962,1.2968,1.2942,1.2946,1.2978,1.2975,1.3079,1.3094,1.3026,1.3026,1.3027,0,1.2207,1.2252,1.2322,1.2356,1.239,1.2446,1.2484,1.2521,1.2561,1.2629,1.2664,1.2729,1.2784,1.2885,1.2932,1.2995,1.3003,1.3035,1.3013,1.3002,1.3003,1.3,1.3004,1.3039,1.3039,1.304,1.304,0,1.2276,1.2293,1.2346,1.2407,1.2452,1.2502,1.2552,1.258,1.2626,1.2669,1.2734,1.2776,1.2859,1.2924,1.2991,1.3027,1.3042,1.3046,1.3058,1.3049,1.3032,1.3041,1.2952,1.3044,1.3044,1.3043,1.3043,1.3043,1.2319,1.2359,1.2414,1.2474,1.2515,1.2561,1.2604,1.2642,1.2696,1.2766,1.2785,1.2853,1.2909,1.3001,1.3038,1.3092,1.3089,1.3105,1.311,1.3113,1.3113,1.3023,1.3105,1.3105,1.3105,1.3105,1.3105,0,1.2388,1.2424,1.2478,1.2547,1.2594,1.2601,1.2657,1.2696,1.2755,1.2806,1.2858,1.2933,1.2995,1.3046,1.3111,1.3145,1.3153,1.3161,1.3159,1.3167,1.3113,1.3096,1.3153,1.3153,1.3153,1.3153,1.3153,1.3153,1.243,1.2498,1.2521,1.261,1.2647,1.2712,1.2743,1.2786,1.2827,1.2908,1.296,1.2992,1.3043,1.3112,1.317,1.3183,1.3206,1.3212,1.3227,1.3176,1.317,1.3165,1.315,1.3217,1.3217,1.3276,1.3277,1.3277]},{"header":{"parameterUnit":"m.s-1","parameterCategory":1,"la1":30.2991,"la2":30.254,"lo1":-89.0895,"lo2":-89.0444,"dy":0.0017,"dx":0.0017,"nx":28,"ny":28,"refTime":"2025-03-21T03:00:00:Z","depth":0,"parameterNumber":3,"parameterNumberName":"V-component_of_WINDS"},"data":[0,0,0,0,0,0,0,0,0,0,0,0,0,0,0,0,0,0,0,0,0,0,0,0,0,0,0,0,0,0,0,0,0,0,0,0,0,0,0,0,0,0,0,0,0,0,0,0,0,0,0,0,0,0,0,0,0,0,2.0324,2.0324,0,2.0308,2.0308,2.0308,2.031,2.031,2.031,2.0311,2.0291,2.029,2.029,0,0,0,0,0,0,0,0,0,0,0,0,0,2.0352,2.0352,2.0324,2.0324,2.0324,2.0308,2.0308,2.0308,2.031,2.031,2.031,2.0311,2.0291,2.029,2.0289,0,0,0,0,0,0,0,0,0,0,0,0,0,2.0338,2.0351,2.0324,2.0323,2.0322,2.0308,2.0308,2.0308,2.031,2.031,2.031,2.0311,2.0292,2.029,2.0289,2.0274,0,0,2.0286,2.0285,0,0,0,0,0,0,0,0,2.0339,2.0337,2.0323,2.0323,2.0322,2.0311,2.0311,2.0296,2.031,2.0314,2.0311,2.0311,2.0297,2.0296,2.0292,2.0273,2.0273,2.0286,2.0285,2.0285,2.0284,0,0,0,0,0,0,0,2.034,2.0338,2.0318,2.0323,2.0322,2.0322,2.032,2.0308,2.0304,2.0314,2.0314,2.0312,2.0297,2.0293,2.0291,2.0272,2.0286,2.0285,2.0284,2.0284,2.0239,2.0239,0,0,0,0,0,0,2.0342,2.0339,2.0318,2.0317,2.0332,2.0321,2.0319,2.0314,2.0304,2.0303,2.0312,2.0313,2.0295,2.0293,2.0291,2.0271,2.0285,2.0283,2.0283,2.024,2.0239,2.0239,0,0,0,0,0,0,2.0342,2.034,2.0319,2.0328,2.0325,2.032,2.0315,2.0314,2.031,2.0302,2.0301,2.0309,2.0295,2.0292,2.0278,2.0271,2.0283,2.0282,2.024,2.024,2.0239,2.0233,0,0,0,0,0,0,2.0343,2.034,2.0335,2.0328,2.0325,2.0308,2.0314,2.0313,2.0308,2.0309,2.0299,2.0298,2.0295,2.028,2.0277,2.0269,2.0281,2.0241,2.024,2.0239,2.0234,2.0232,2.0231,0,0,0,0,0,2.0344,2.0334,2.0335,2.0333,2.0319,2.0307,2.0305,2.0303,2.0308,2.0302,2.0297,2.0298,2.0272,2.0279,2.0275,2.0267,2.0241,2.024,2.0239,2.0235,2.0233,2.0231,0,0,0,0,0,0,2.0339,2.0333,2.0334,2.0321,2.0315,2.0308,2.0301,2.0301,2.0293,2.0294,2.029,2.0288,2.0274,2.0269,2.0276,2.0251,2.0257,2.0255,2.0255,2.0253,2.0251,2.0252,2.028,0,0,0,0,0,2.0337,2.0329,2.0324,2.0313,2.031,2.0306,2.0301,2.03,2.0293,2.029,2.0284,2.0276,2.0266,2.0259,2.025,2.0234,2.0231,2.0226,2.0225,2.0223,2.0222,2.0211,2.0209,2.0235,2.0235,2.0235,0,0,2.0332,2.0327,2.0322,2.0312,2.0307,2.0298,2.0303,2.0294,2.0287,2.0288,2.0274,2.027,2.026,2.0245,2.0238,2.0241,2.0214,2.0222,2.0221,2.022,2.021,2.0207,2.0205,2.0234,2.0234,2.0235,0,0,2.0317,2.0313,2.0303,2.0299,2.0291,2.0289,2.0286,2.0279,2.0276,2.0263,2.0263,2.0254,2.0237,2.023,2.0225,2.0207,2.0207,2.0204,2.0195,2.0185,2.0183,2.0181,2.0174,2.0171,2.0202,2.0202,2.0202,0,2.0311,2.0298,2.0298,2.0288,2.0283,2.0285,2.0274,2.0269,2.0258,2.0254,2.0257,2.0236,2.023,2.0212,2.0208,2.0204,2.0199,2.0205,2.0184,2.0182,2.018,2.0173,2.017,2.0202,2.0202,2.0202,2.0202,0,2.029,2.0282,2.0274,2.0265,2.0259,2.0249,2.0246,2.0239,2.0239,2.0235,2.0221,2.0214,2.0203,2.0199,2.0198,2.018,2.0182,2.0185,2.019,2.0177,2.017,2.0167,2.0201,2.0201,2.0202,2.0202,0,0,2.0272,2.0263,2.026,2.0255,2.0247,2.024,2.0229,2.0219,2.0213,2.0206,2.0195,2.0181,2.0183,2.0177,2.0175,2.0167,2.0151,2.017,2.017,2.0166,2.013,2.0127,2.0124,2.0152,2.0151,2.0151,2.013,0,2.0255,2.0237,2.0237,2.022,2.0211,2.0212,2.0203,2.0196,2.0193,2.0183,2.0179,2.0168,2.0173,2.0169,2.0161,2.0155,2.0144,2.0157,2.014,2.014,2.0141,2.012,2.0117,2.0098,2.0128,2.0127,2.0127,0,2.0234,2.0226,2.0209,2.0202,2.0198,2.0189,2.018,2.0172,2.0163,2.0161,2.0154,2.0153,2.0141,2.0148,2.0129,2.0138,2.0131,2.0127,2.0126,2.0124,2.0132,2.0116,2.0092,2.0089,2.0123,2.0123,2.0123,0,2.022,2.0206,2.0193,2.019,2.0181,2.0175,2.0171,2.0163,2.0157,2.0148,2.0144,2.0133,2.0127,2.0118,2.0114,2.0119,2.0095,2.0102,2.0091,2.0091,2.0085,2.0085,2.0059,2.0083,2.0083,2.0083,2.0083,0,2.0201,2.019,2.0187,2.0179,2.0166,2.0165,2.0152,2.0148,2.0141,2.0132,2.0132,2.0123,2.0119,2.0108,2.0105,2.0089,2.0087,2.0083,2.0082,2.0082,2.0083,2.0077,2.0078,2.0082,2.0082,2.0082,2.0083,0,2.0183,2.0181,2.0167,2.0161,2.0159,2.0149,2.0143,2.0135,2.0131,2.0119,2.0116,2.011,2.0098,2.0093,2.0078,2.0075,2.0057,2.0057,2.006,2.0059,2.0048,2.0049,2.0016,2.0011,2.004,2.004,2.0039,0,2.0171,2.0162,2.0155,2.0149,2.0145,2.0135,2.0129,2.0127,2.012,2.011,2.0103,2.0091,2.0081,2.0061,2.0054,2.0042,2.0041,2.0031,2.0039,2.0039,2.0039,2.0039,2.0038,2.0029,2.0028,2.0028,2.0028,0,2.0148,2.0147,2.0139,2.013,2.0123,2.0115,2.0108,2.0103,2.01,2.0092,2.008,2.0072,2.0057,2.0044,2.0031,2.0026,2.0025,2.0026,2.0022,2.0022,2.0023,2.002,2.0054,2.0026,2.0026,2.0026,2.0026,2.0027,2.0131,2.0123,2.0117,2.0107,2.0102,2.0095,2.0087,2.0083,2.0073,2.0061,2.006,2.0047,2.0038,2.0021,2.0015,2.0003,2.0005,2.0001,1.9999,1.9998,1.9996,2.0026,2.0001,2.0001,2.0001,2.0001,2.0001,0,2.0107,2.0103,2.0095,2.0085,2.0077,2.0079,2.0071,2.0064,2.0052,2.0045,2.0035,2.002,2.0008,2.0001,1.9988,1.998,1.9979,1.9976,1.9976,1.9974,1.9996,1.9999,1.9977,1.9977,1.9977,1.9977,1.9977,1.9977,2.0094,2.008,2.0079,2.0062,2.0058,2.0046,2.0041,2.0034,2.0028,2.0012,2.0002,1.9998,1.9989,1.9976,1.9964,1.9962,1.9956,1.9953,1.9951,1.9971,1.9973,1.9975,1.9979,1.9952,1.9952,1.993,1.993,1.993]}]]